• MPC Preparation (Info)

  • MPEC 2023-L43 : 2023 LM

    The following Minor Planet Electronic Circular may be linked-to from your own Web pages, but must not otherwise be redistributed electronically.

    A form allowing access to any MPEC is at the bottom of this page.


    Read MPEC 2023-L42 Read MPEC 2023-L44


    M.P.E.C. 2023-L43                                  Issued 2023 June 9, 13:03 UT
    
         The Minor Planet Electronic Circulars contain information on unusual
             minor planets, routine data on comets and natural satellites,
             and occasional editorial announcements.  They are published
        on behalf of Division F of the International Astronomical Union by the
              Minor Planet Center, Smithsonian Astrophysical Observatory,
                              Cambridge, MA 02138, U.S.A.
    			  
                 Prepared using the Tamkin Foundation Computer Network
    
                                  MPC@CFA.HARVARD.EDU
                URL https://www.minorplanetcenter.net/    ISSN 1523-6714
    
                                     2023 LM                                 
    
    
    Observations:
         K23L00M* C2023 06 08.33579114 50 12.972-07 19 51.69         21.05wXEL043F52
         K23L00M  C2023 06 08.34878814 50 20.699-07 20 33.39         20.48wXEL043F52
         K23L00M  C2023 06 08.36174414 50 28.425-07 21 14.67         20.25wXEL043F52
         K23L00M  C2023 06 08.37474814 50 36.198-07 21 56.23         21.05wXEL043F52
         K23L00M  C2023 06 08.44230514 51 17.037-07 25 28.70         19.51GVEL043F52
         K23L00M  C2023 06 08.44293914 51 17.429-07 25 30.91         19.50GVEL043F52
         K23L00M IC2023 06 08.85837214 56 08.92 -07 48 54.2          20.2 GVEL043L01
         K23L00M KC2023 06 08.85982614 56 09.82 -07 48 59.8          20.4 GVEL043L01
         K23L00M IC2023 06 08.86143614 56 10.84 -07 49 05.4          20.4 GVEL043L01
         K23L00M IC2023 06 08.86279814 56 11.67 -07 49 09.0          20.1 GVEL043L01
         K23L00M HC2023 06 08.89735 14 56 32.07 -07 47 16.3          20.3 GVEL043M21
         K23L00M KC2023 06 08.93468 14 56 54.68 -07 49 14.2                VEL043M21
         K23L00M KC2023 06 08.96017014 57 15.065-07 54 32.54         20.7 GVEL043J95
         K23L00M KC2023 06 08.97425714 57 24.029-07 55 16.64         20.6 GVEL043J95
         K23L00M KC2023 06 08.98589314 57 31.378-07 55 53.15         20.2 GVEL043J95
         K23L00M |C2023 06 08.99195 14 57 47.46 -07 51 49.9          20.8 VuEL043807
         K23L00M |C2023 06 08.99687 14 57 50.55 -07 52 06.1          20.6 VuEL043807
         K23L00M |C2023 06 09.00178 14 57 53.62 -07 52 22.7          20.4 VuEL043807
         K23L00M KC2023 06 09.11080714 59 03.66 -08 02 07.9          19.9 VuEL043H21
         K23L00M KC2023 06 09.11360514 59 05.37 -08 02 17.0          19.9 VuEL043H21
         K23L00M KC2023 06 09.11672314 59 07.26 -08 02 26.7          20.1 VuEL043H21
         K23L00M mC2023 06 09.31157715 01 11.604-08 12 25.85         20.85GVEL043I52
         K23L00M mC2023 06 09.31217615 01 11.989-08 12 27.97         20.47GVEL043I52
         K23L00M mC2023 06 09.31277515 01 12.306-08 12 29.84         22.19GVEL043I52
         K23L00M mC2023 06 09.31337315 01 12.760-08 12 31.57         20.89GVEL043I52
    
    Observer details:
    807 Cerro Tololo Observatory, La Serena.  Observers T. Linder, R. Holmes, L.
        Horn.  0.61-m f/6.5 Dall-Kirkham Astrograph + CCD.
    F52 Pan-STARRS 2, Haleakala.  Observers J. Bulger, T. Lowe, P. Minguez, A.
        Schultz, I. Smith, K. Chambers, T. Dukes.  Measurers K. Chambers, T. de
        Boer, J. Bulger, J. Fairlamb, H. Gao, M. Huber, C.-C. Lin, T. Lowe, E.
        Magnier, P. Minguez, Y. Ramanjooloo, A. Schultz, I. Smith, R. Wainscoat,
        R. Weryk, S. Chastel.  1.8-m Ritchey-Chretien + CCD.
    H21 Astronomical Research Observatory, Westfield.  Observer R. Holmes.
        Measurers T. Linder, R. Holmes, L. Horn.  0.76-m f/3.0 astrograph + CCD.
    I52 Steward Observatory, Mt. Lemmon Station.  Observer J. K. Hogan.  Measurers
        E. J. Christensen, D. Fay, J. B. Fazekas, D. C. Fuls, A. R. Gibbs, A. D.
        Grauer, H. Groeller, J. K. Hogan, R. A. Kowalski, S. M. Larson, G. J.
        Leonard, D. Rankin, R. L. Seaman, A. Serrano, F. C. Shelly, K. W.
        Wierzchos.  1.0-m prime focus + CCD.
    J95 Great Shefford.  Observer P. Birtwhistle.  0.41-m f/6.3 Schmidt-Cassegrain
        + CCD.
    L01 Visnjan Observatory, Tican.  Observer K. Korlevic.  1.0-m f/2.9 reflector
        + CCD.
    M21 Schiaparelli Southern Observatory, Hakos.  Observers A. Aletti, F.
        Bellini, L. Buzzi, G. Galli.  Measurer L. Buzzi.  0.36-m f/8.4 reflector +
        CCD.
    
    Orbital elements:
    2023 LM                                                  Earth MOID = 0.0316 AU
    Epoch 2023 Feb. 25.0 TT = JDT 2460000.5                 Veres                   
    M 306.24745              (2000.0)            P               Q                  
    n   0.59271114     Peri.   92.48234     -0.45979434     +0.88801989             
    a   1.4035913      Node   150.14319     -0.81723220     -0.42175420             
    e   0.2562923      Incl.    0.36120     -0.34744885     -0.18315042             
    P   1.66           H   26.01          G   0.15           U   7                  
    Residuals in seconds of arc
    230608 F52  0.5-  0.3-    230608 L01  0.1-  0.3+    230609 H21  0.3+  0.2-
    230608 F52  0.7-  0.3-    230608 M21  0.1+  0.4+    230609 H21  0.0   0.3-
    230608 F52  0.6-  0.2-    230608 M21  0.1-  0.1-    230609 H21  0.5-  0.1+
    230608 F52  0.5-  0.3-    230608 J95  0.7-  0.0     230609 I52  0.0   0.1+
    230608 F52  0.0   0.3-    230608 J95  0.4+  0.4+    230609 I52  0.2+  0.2-
    230608 F52  0.1+  0.6-    230608 J95  0.2+  0.5+    230609 I52  0.6-  0.2-
    230608 L01  0.1-  0.9+    230608 807  0.1-  0.1+    230609 I52  0.6+  0.1-
    230608 L01  0.1-  0.0     230608 807  0.1+  0.1+
    230608 L01  0.2+  0.5-    230609 807  0.2+  0.3-
    
    Ephemeris:
    2023 LM                  a,e,i = 1.40, 0.26, 0                   q = 1.0439
    Date    TT    R. A. (2000) Decl.     Delta      r    Elong.  Phase     V
    2023 05 10    11 43 04.0 +07 10 29   0.07460 1.0534   124.3    52.3    22.4
    ...
    2023 05 25    12 42 08.5 +03 09 50   0.05294 1.0439   124.9    52.7    21.7
    ...
    2023 06 02    13 43 54.0 -01 52 26   0.04469 1.0452   133.3    44.9    21.1
    ...
    2023 06 08    14 46 24.9 -07 00 12   0.04196 1.0490   143.8    34.9    20.7
    2023 06 09    14 57 44.3 -07 53 38   0.04190 1.0499   145.7    33.0    20.6
    2023 06 10    15 09 10.6 -08 46 30   0.04196 1.0508   147.7    31.1    20.6
    ...
    2023 06 16    16 16 36.5 -13 28 41   0.04497 1.0579   159.0    20.2    20.4
    ...
    2023 06 24    17 29 55.9 -17 22 36   0.05537 1.0708   169.1    10.3    20.5
    ...
    2023 07 09    18 46 36.6 -19 55 50   0.08852 1.1047   173.9     5.6    21.4
    
    M. P. C. Staff               (C) Copyright 2023 MPC           M.P.E.C. 2023-L43
    


    Read MPEC 2023-L42 Read MPEC 2023-L44


    MPEC number:

    Enter an MPEC number in one of the following forms:

    • 1997-B01 (the full form)
    • J97B01 (the packed version of the full form)
    • B01 (the abbreviated form)